Location: Siratepeler Tepesi
(39.1042°N, 32.0781°E)
Time: 04:42:41
(UTC+00:00)

CZ-4B R/B - Pass Details

Date: 11 April 2026
Orbit: 808 x 880 km, 98.9° (Epoch: 9 May)

Event Time Altitude Azimuth Distance (km) Brightness Sun altitude
Exits shadow 17:53:16 26° 136° (SE) 1,628 4.1 -17.0°
Maximum altitude 17:56:14 53° 71° (ENE) 1,049 3.4 -17.5°
Drops below altitude 10° 18:01:39 10° 356° (N) 2,520 6.1 -18.4°
Sets 18:04:06 0° 352° (N) 3,469 6.9 -18.8°
